sat.trackr.live / text

‹ back to catalog

UNKNOWN

NORAD 85047

UNKNOWN UNKNOWN UNKNOWN

§ Identity

Operator
Country
Launch date
Launch site
Launch vehicle
Mass (kg)
RCS (m²)

External: N2YO · Heavens-Above

§ Orbital elements

Epoch: 2026-05-21T11:14:36.083616Z

Period
106.80 min
Inclination
102.1667°
Eccentricity
0.0129667
Mean motion
13.48272511 rev/d
Perigee alt
981.9 km
Apogee alt
1,175.3 km
Semi-major
7,456.8 km
B*
1.2932e-2
RAAN
145.6778°
Arg perigee
34.3239°
Mean anomaly
326.6180°
Rev number
59,815

§ Raw data

UNKNOWN1 85047U          26141.46847319  .00008379  00000+0  12932-1 0  99942 85047 102.1667 145.6778 0129667  34.3239 326.6180 13.48272511598150

JSON: /api/v1/satellites/85047 · /tle

For live sub-satellite position, see the globe view (requires WebGL).

§ Visibility from observer

Set your observer location to see the next 7 days of passes ≥ 10°. The values pass through the URL so the page stays shareable.

No JS? Fill the form by hand. The geolocation button needs JavaScript.